Regional Weather Roundup
Issued by NWS

Home | Current Version | Previous Version | Graphics & Text | Print | Product List | Glossary On
Versions: 1 2 3 4 5 6 7 8 9 10 11 12 13 14 15 16 17 18 19 20 21 22 23 24 25 26 27 28 29 30 31 32 33 34 35 36 37 38 39 40 41 42 43 44 45 46 47 48 49 50
000
ASUS43 KFSD 060610
RWRSD

WEATHER ROUNDUP FOR SOUTH DAKOTA
NATIONAL WEATHER SERVICE SIOUX FALLS SD
100 AM CDT WED MAY 06 2015

NOTE: "FAIR" INDICATES FEW OR NO CLOUDS BELOW 12,000 FEET WITH NO
SIGNIFICANT WEATHER AND/OR OBSTRUCTIONS TO VISIBILITY.


SDZ001>005-009-010-012>017-060700-
NORTHWEST AND NORTH CENTRAL SOUTH DAKOTA

CITY           SKY/WX    TMP DP  RH WIND       PRES   REMARKS
BUFFALO          N/A     57  51  80 SE21      29.71F
FAITH            N/A     57  54  89 SE14      29.82F
MOBRIDGE       HVY RAIN  59  57  93 SE7       29.85F FOG
$$

SDZ012>016-024>037-041>051-057-063-072>074-060700-
SOUTHWEST AND SOUTH CENTRAL SOUTH DAKOTA

CITY           SKY/WX    TMP DP  RH WIND       PRES   REMARKS
RAPID CTY ARPT CLOUDY    56  51  84 S9        29.81F
PIERRE         MOCLDY    56  55  97 SE8       29.85F FOG
CUSTER         CLOUDY    47  46  97 VRB5      29.86F FOG
ELLSWORTH AFB  CLOUDY    57  53  86 S8        29.80F
PHILIP         CLOUDY    58  56  93 SE9       29.83S
PINE RIDGE     CLOUDY    55  50  83 SE13      29.81F
SPEARFISH      CLOUDY    55  46  71 S5        29.80S
WINNER         CLOUDY    61  54  77 S8        29.86F
$$

SDZ004>011-016>023-039-040-060700-
NORTHEAST SOUTH DAKOTA

CITY           SKY/WX    TMP DP  RH WIND       PRES   REMARKS
ABERDEEN       MOCLDY    61  56  83 SE10      29.92F
WATERTOWN      CLOUDY    60  57  89 SE13G22   29.97F
BROOKINGS      CLOUDY    59  57  94 SE17      30.00S
SISSETON         N/A     58  55  90 S18       29.98F
$$

SDZ017-020-022-023-036>040-048>070-060700-
SOUTHEAST SOUTH DAKOTA

CITY           SKY/WX    TMP DP  RH WIND       PRES   REMARKS
SIOUX FALLS    CLOUDY    62  60  93 SE16      29.97F FOG
HURON          MOCLDY    61  58  90 SE13      29.91F
CHAMBERLAIN    CLOUDY    58  56  95 SE6       29.88S
MITCHELL       MOCLDY    63  59  87 SE14      29.91F
YANKTON        MOCLDY    64  55  72 E7        29.93S
$$

ABBREVIATIONS USED IN REMARKS
   TC - TEMPERATURE IN CELSIUS
  WCI - WIND CHILL INDEX
   HX - HEAT INDEX
  VSB - VISIBILITY



USA.gov is the U.S. government's official web portal to all federal, state and local government web resources and services.